This demonstration page uses our WeatherBlox Daily Observations layout. Learn more.

38.89511, -77.03637

Hourly Observations for April 25, 2017

Temp ( °F °C ) Dew Point ( °F °C ) Humidity (%) Winds ( mph kmh ) Pressure ( in mb ) Visibility ( mi km ) Precip ( " mm )
12:52 am 00:52 Cloudy 53 11.7 50 10 89 89 NE 10 17 29.97 1015 10 16.0934 0.01 0.254
1:05 am 01:05 Cloudy with Light Rain 53 11.7 51 10.6 93 93 NE 13 20 29.97 1015 6 9.65604 0 0.0254
1:26 am 01:26 Cloudy with Light Rain 53 11.7 51 10.6 93 93 NNE 15 24 29.94 1014 10 16.0934 0.02 0.508
1:45 am 01:45 Cloudy 53 11.7 51 10.6 93 93 NE 13 20 29.94 1014 10 16.0934 0.02 0.508
1:52 am 01:52 Cloudy 53 11.7 51 10.6 93 93 NE 13 20 29.94 1014 10 16.0934 0.02 0.508
2:52 am 02:52 Cloudy 54 12.2 52 11.1 93 93 NE 12 19 29.92 1013 10 16.0934 0 0
3:52 am 03:52 Cloudy 55 12.8 53 11.7 93 93 NE 15 24 29.89 1012 10 16.0934 0 0
4:52 am 04:52 Cloudy 56 13.3 54 12.2 93 93 NE 16 26 29.88 1012 10 16.0934 0 0
5:52 am 05:52 Cloudy 56 13.3 55 12.8 97 97 NE 17 28 29.87 1011 10 16.0934 0 0
6:52 am 06:52 Cloudy with Light Drizzle 56 13.3 55 12.8 97 97 NE 13 20 29.88 1012 2.5 4.02335 0 0.0254
7:27 am 07:27 Cloudy with Light Drizzle 56 13.3 55 12.8 97 97 NE 16 26 29.88 1012 3 4.82802 0 0.0254
7:52 am 07:52 Cloudy with Light Drizzle 56 13.3 56 13.3 100 100 NE 16 26 29.88 1012 3 4.82802 0 0.0254
8:52 am 08:52 Cloudy 58 14.4 56 13.3 93 93 NE 21 33 29.87 1012 7 11.26538 0 0.0254
9:23 am 09:23 Cloudy 58 14.4 56 13.3 93 93 NE 20 31 29.88 1012 7 11.26538 0 0
9:52 am 09:52 Cloudy 58 14.4 56 13.3 93 93 NE 18 30 29.85 1011 10 16.0934 0 0
10:04 am 10:04 Cloudy with Light Rain 57 14 55 13 94 94 NE 23 37 29.85 1011 7 11.26538 0 0
10:09 am 10:09 Cloudy with Light Rain 58 14.4 56 13.3 93 93 NE 21 33 29.85 1011 4 6.43736 0 0.0254
10:52 am 10:52 Cloudy with Light Rain 59 15 57 13.9 93 93 NE 21 33 29.83 1010 5 8.0467 0.01 0.254
11:07 am 11:07 Cloudy with Light Rain 59 15 56 13.3 90 90 NE 22 35 29.83 1010 2.5 4.02335 0 0.0254
11:21 am 11:21 Cloudy with Light Rain 59 15 57 13.9 93 93 NE 22 35 29.83 1010 1.75 2.816345 0 0.0254
11:33 am 11:33 Cloudy with Light Rain 59 15 57 13.9 93 93 NE 20 31 29.83 1010 2 3.21868 0 0.0254
11:40 am 11:40 Cloudy with Light Rain 58 14.4 57 13.9 97 97 NE 24 39 29.83 1010 3 4.82802 0.01 0.254
11:52 am 11:52 Cloudy with Light Rain 59 15 57 13.9 93 93 NE 20 31 29.8 1009 3 4.82802 0.01 0.254
12:52 pm 12:52 Cloudy 60 15.6 57 13.9 90 90 NE 22 35 29.77 1008 8 12.87472 0 0.0254
12:58 pm 12:58 Cloudy with Light Rain 61 16 57 14 88 88 NE 20 31 29.77 1008 3 4.82802 0 0
1:16 pm 13:16 Cloudy with Light Rain 61 16 57 14 88 88 NE 20 31 29.77 1008 4 6.43736 0 0
1:25 pm 13:25 Cloudy with Light Rain 60 15.6 58 14.4 93 93 NE 20 31 29.77 1008 2 3.21868 0.02 0.508
1:47 pm 13:47 Cloudy with Mist and Fog 61 16 57 14 88 88 NE 16 26 29.77 1008 2.5 4.02335 0.02 0.508
1:52 pm 13:52 Cloudy with Light Rain 59 15 58 14.4 96 96 NE 20 31 29.78 1008 2.5 4.02335 0.02 0.508
2:26 pm 14:26 Cloudy with Light Rain 60 15.6 58 14.4 93 93 NE 16 26 29.77 1008 3 4.82802 0 0.0254
2:52 pm 14:52 Cloudy with Light Rain 60 15.6 58 14.4 93 93 NE 21 33 29.76 1008 3 4.82802 0.01 0.254
3:52 pm 15:52 Cloudy with Light Drizzle 60 15.6 59 15 96 96 NE 17 28 29.73 1007 5 8.0467 0 0.0254
4:12 pm 16:12 Cloudy with Light Drizzle 61 16 59 15 94 94 NE 16 26 29.74 1007 4 6.43736 0 0
4:52 pm 16:52 Cloudy 60 15.6 59 15 96 96 NE 12 19 29.74 1007 9 14.48406 0 0.0254
5:20 pm 17:20 Cloudy 61 16 59 15 94 94 NNE 14 22 29.74 1007 10 16.0934 0 0
5:52 pm 17:52 Cloudy 61 16.1 58 14.4 90 90 NE 16 26 29.73 1007 10 16.0934 0 0
6:52 pm 18:52 Cloudy 61 16.1 58 14.4 90 90 NE 14 22 29.73 1007 10 16.0934 0 0
7:15 pm 19:15 Cloudy 60 15.6 58 14.4 93 93 NE 15 24 29.74 1007 10 16.0934 0 0
7:52 pm 19:52 Cloudy 59 15 58 14.4 96 96 NNE 12 19 29.73 1007 10 16.0934 0 0
8:03 pm 20:03 Cloudy 59 15 57 14 94 94 NNE 13 20 29.74 1007 10 16.0934 0 0
8:52 pm 20:52 Cloudy 59 15 57 13.9 93 93 NNE 12 19 29.73 1007 10 16.0934 0 0
9:52 pm 21:52 Cloudy 59 15 58 14.4 96 96 NNE 13 20 29.75 1008 8 12.87472 0 0
10:52 pm 22:52 Cloudy with Light Drizzle 59 15 58 14.4 96 96 N 13 20 29.75 1008 5 8.0467 0 0.0254
10:59 pm 22:59 Cloudy with Light Drizzle 58 14.4 58 14.4 100 100 N 13 20 29.74 1007 3 4.82802 0 0.0254
11:52 pm 23:52 Cloudy with Light Drizzle 59 15 58 14.4 96 96 N 9 15 29.74 1007 3 4.82802 0 0.0254

Powered by AerisWeather